Regional Weather Roundup
Issued by NWS

Home | Current Version | Previous Version | Text Only | Print | Product List | Glossary Off
Versions: 1 2 3 4 5 6 7 8 9 10 11 12 13 14 15 16 17 18 19 20 21 22 23 24 25 26 27 28 29 30 31 32 33 34 35 36 37 38 39 40 41 42 43 44 45 46 47 48 49 50

000
ASUS45 KPSR 191410
RWRAZ

ARIZONA HOURLY REGIONAL WEATHER ROUNDUP
NATIONAL WEATHER SERVICE PHOENIX AZ
700 AM MST FRI JAN 19 2018

NOTE: FAIR INDICATES FEW OR NO CLOUDS BELOW 12,000 FEET WITH NO
SIGNIFICANT WEATHER AND/OR OBSTRUCTIONS TO VISIBILITY.

AZZ001>003-036-191500-
NORTHWEST ARIZONA

CITY           SKY/WX    TMP DP  RH WIND       PRES   REMARKS
BULLHEAD CITY  CLEAR     50  34  53 CALM      29.98R
KINGMAN        CLEAR     46  26  45 SE13      30.02S
$$

AZZ004>008-015-016-018-191500-
NORTH CENTRAL ARIZONA

CITY           SKY/WX    TMP DP  RH WIND       PRES   REMARKS
GRAND CANYON   PTCLDY    20  17  88 CALM      30.12S
WILLIAMS       CLEAR     37  18  44 SE8       30.10F WCI  31
PRESCOTT       CLEAR     33  21  61 S5        30.10S WCI  29
FLAGSTAFF      CLEAR     26  16  65 CALM      30.14S
PAYSON         CLEAR     36  18  48 CALM      30.13S
PAGE           PTCLDY    35  24  64 CALM      30.06S
$$

AZZ009>014-017-191500-
NORTHEAST ARIZONA

CITY           SKY/WX    TMP DP  RH WIND       PRES   REMARKS
WINSLOW        MOCLDY    27  13  55 SE8       30.11S WCI  19
SAINT JOHNS    MOCLDY    20  14  77 S5        30.14S WCI  13
WINDOW ROCK    MOCLDY    16  12  84 CALM      30.16R
SHOW LOW       MOCLDY    39  14  35 S14       30.16S WCI  31
$$

AZZ540-542>544-546-548-191500-
GREATER PHOENIX AREA

CITY           SKY/WX    TMP DP  RH WIND       PRES   REMARKS
PHOENIX        PTCLDY    50  30  46 E6        30.01S
BUCKEYE        CLEAR     43  30  61 CALM      30.01S
GLENDALE       PTCLDY    43  32  65 CALM      30.04S
LUKE AFB       CLEAR     43  34  71 NW7       30.01S
DEER VALLEY    CLEAR     48  28  46 NE7       30.02S
SCOTTSDALE     CLEAR     47  32  56 W3        30.03S
MESA-FALCON    PTCLDY    50  27  40 NE6       30.04R
MESA-GATEWAY   PTCLDY    43  27  52 SE7       30.04F
CHANDLER       PTCLDY    45  30  57 NE3       30.02F
$$

AZZ539-553-191500-
SOUTHWEST MARICOPA COUNTY AND PINAL COUNTY

CITY           SKY/WX    TMP DP  RH WIND       PRES   REMARKS
CASA GRANDE    NOT AVBL
GILA BEND      FAIR      44  27  51 E3        29.99R
$$

AZZ503-504-507>509-191500-
SOUTHEAST ARIZONA

CITY           SKY/WX    TMP DP  RH WIND       PRES   REMARKS
TUCSON         CLEAR     46  21  37 SE13      30.08S
DAVIS-MONTHAN  CLEAR     46  19  35 S7        30.06S
RYAN FIELD     CLEAR     43  23  45 SE7       30.08R
NOGALES        CLEAR     36  19  50 E5        30.12R WCI  32
SIERRA VISTA   PTCLDY    40  17  39 CALM      30.15R
DOUGLAS        MOCLDY    27  15  61 E6        30.16R WCI  20
SAFFORD        PTCLDY    34  16  47 SE10      30.13S WCI  26
$$

AZZ532-191500-
SOUTHWEST ARIZONA

CITY           SKY/WX    TMP DP  RH WIND       PRES   REMARKS
YUMA           NOT AVBL
$$

CAZ041-043-047-048-061-525>527-560>570-191500-
SOUTHERN CALIFORNIA

CITY           SKY/WX    TMP DP  RH WIND       PRES   REMARKS
DOWNTOWN L.A.  CLOUDY    59  55  87 CALM      30.00S FOG
L.A. AIRPORT   CLOUDY    57  57 100 CALM      30.01R
SAN DIEGO      PTCLDY    58  53  84 E6        30.03F
BURBANK        CLOUDY    57  55  93 E3        30.01R FOG
ONTARIO        PTCLDY    52  48  86 CALM      30.00S FOG
RIVERSIDE      CLEAR     50  46  86 NE6       30.01S
PALM SPRINGS   CLEAR     54  43  66 VRB5      29.96S
EL CENTRO NAS  PTCLDY    49  29  46 CALM      29.97R
IMPERIAL       CLEAR     49  33  54 CALM      29.94S
BLYTHE         CLEAR     45  32  60 CALM      29.97R
NEEDLES        CLEAR     53  33  46 W8        29.97R
$$

NVZ020-UTZ003-191500-
SOUTHERN NEVADA-UTAH

CITY           SKY/WX    TMP DP  RH WIND       PRES   REMARKS
LAS VEGAS      PTCLDY    50  37  61 W6        29.92S
SALT LAKE CITY CLOUDY    57  29  34 S15G22    29.78R
$$

NMZ009-TXZ055-191500-
NEW MEXICO-WEST TEXAS

CITY           SKY/WX    TMP DP  RH WIND       PRES   REMARKS
ALBUQUERQUE    MOCLDY    26  10  50 CALM      30.15R
EL PASO        PTCLDY    29  15  56 CALM      30.15S
$$


........................KEY........................
SKY/WX - SKY CONDITION/WEATHER
TMP    - TEMPERATURE IN FAHRENHEIT
DP     - DEW POINT IN FAHRENHEIT
RH     - RELATIVE HUMIDITY IN PERCENT
WIND   - DIRECTION AND SPEED IN MILES PER HOUR (MPH)
VRB    - VARIABLE WIND DIRECTION
PRES   - MEAN SEA LEVEL PRESSURE IN INCHES OF MERCURY
         F - FALLING PRESSURE   R - RISING PRESSURE
         S - STEADY PRESSURE
VSB    - VISIBILITY IN MILES
HX     - HEAT INDEX IN FAHRENHEIT
WCI    - WIND CHILL INDEX IN FAHRENHEIT
TC     - TEMPERATURE IN CELSIUS WHICH IS ALSO KNOWN AS
         TEMPERATURE IN CENTIGRADE
AFB    - AIR FORCE BASE
         LUKE AFB IS LUKE AIR FORCE BASE
         DAVIS-MONTHAN IS DAVIS-MONTHAN AIR FORCE BASE
NAS    - NAVAL AIR STATION
         EL CENTRO NAS IS EL CENTRO NAVAL AIR STATION
N/A    - NOT AVAILABLE




USA.gov is the U.S. government's official web portal to all federal, state and local government web resources and services.